AEROCUBE 6B

Last updated on Mon Sep 21 2026 00:03:44 GMT+0000 (Coordinated Universal Time)

1 40046U 14033AN 26263.21850678 .00004257 00000+0 33692-3 0 9994 2 40046 97.7360 69.2432 0041056 41.2362 319.1950 15.00487102661007
UTC large
Height (km)
Speed (km/s)
/
Latitude / Longitude
Inclination (degrees)
Orbital Period (minutes)
Azimuth
Elevation
Range (km)
Doppler Factor

Next 0 passes for location: London (51.5072 / 0.1276)

No passes found over London.
AEROCUBE 6B